Location: Acequia del Cap
(41.7000°N, 0.6167°E)
Time: 16:43:20
(UTC+00:00)

Cosmos 1680 Rocket - Pass Details

Date: 07 August 2020
Orbit: 760 x 780 km, 74.1° (Epoch: 23 September)

Event Time Altitude Azimuth Distance (km) Brightness Sun altitude
Rises 02:11:41 0° 343° (NNW) 3,241 7.3 -24.8°
Reaches altitude 10° 02:14:07 10° 348° (NNW) 2,309 6.5 -24.6°
Maximum altitude 02:19:17 59° 68° (ENE) 877 3.9 -24.0°
Enters shadow 02:22:51 20° 143° (SE) 1,715 5.1 -23.6°
